SCP
0 0 0 0 0 0 0 0 0 0 0 0 0 -0 -0 -0 -0 -0 -0 0 0 0 0 1 0 0 0 0 0 0 0 0 0 0 0 0 0 0 0 0 0 0 0
0 0 0 0 0 0 0 0 0 0 0 0 0 0 0 0 -0 -0 0 0 0 0 0 1 0 0 0 0 0 0 0 0 0 0 0 0 0 0 0 0 0 0 0
0 0 0 0 -0 0 0 0 0 0 0 0 0 0 0 0 -0 0 0 0 0 0 0 0 0 0 0 0 0 0 0 0 0 0 0 0 0 0 0 0 0 0 0
0 0 0 -0 0 0 0 0 0 0 0 0 0 0 0 0 -0 -0 -0 0 0 0 0 0 0 0 0 0 0 0 0 0 0 0 0 0 0 0 0 0 0 0 0
-0 -0 -0 -0 -0 0 0 0 0 0 0 0 0 0 0 0 0 -0 -0 0 0 0 0 0 0 0 0 0 0 0 0 0 0 0 0 0 0 0 0 0 0 0 0
-0 -0 0 0 0 0 0 0 0 0 0 0 0 0 0 0 0 -0 -0 0 0 0 0 0 0 0 0 0 0 0 0 0 0 0 0 0 0 0 0 0 0 0 0
-0 0 0 0 0 0 0 0 0 0 0 0 0 0 0 0 0 0 0 0 0 1 0 0 0 0 0 0 0 0 0 0 0 0 0 0 0 0 0 0 0 0 0
0 0 0 -0 -0 -0 0 0 0 0 0 0 0 0 0 0 0 0 0 0 0 1 0 0 0 0 0 0 0 0 0 0 0 0 0 0 0 0 0 0 0 0 0
0 0 0 0 0 0 0 0 0 0 0 0 0 0 0 0 0 0 0 0 0 1 0 0 0 0 0 0 0 0 0 0 0 0 0 0 0 0 0 0 0 0 0
0 0 0 0 0 0 0 0 0 0 0 0 0 0 0 0 0 0 0 0 0 1 0 0 0 0 0 0 0 0 0 0 0 0 0 0 0 0 0 0 0 0 0
0 0 0 0 0 0 -0 -0 -0 0 0 0 0 0 0 0 0 0 0 0 0 1 0 0 0 0 0 0 0 0 0 0 0 0 0 0 0 0 0 0 0 0 0
0 0 0 0 0 -0 -0 -0 -0 0 0 0 0 0 0 0 0 0 0 0 1 0 0 0 0 0 0 0 0 0 0 0 0 0 0 0 0 0 0 0 0 0 0
0 0 0 0 0 0 0 0 0 -0 -0 0 0 0 0 0 0 0 0 0 0 0 0 0 0 0 0 0 0 0 0 0 0 0 0 0 0 0 0 0 0 0 0
0 0 0 0 0 0 0 -0 -0 0 -0 -0 0 -0 0 0 0 0 -0 0 0 0 0 0 0 0 0 0 0 0 0 0 0 0 0 0 0 0 0 0 0 0 0
0 0 0 0 0 0 -0 -0 -0 -0 -0 -0 0 0 0 0 -0 0 0 0 0 0 0 0 0 0 0 0 0 0 0 0 0 0 0 0 0 0 0 0 0 0 0
0 -0 -0 0 0 0 -0 -0 -0 -0 0 0 0 0 0 -0 0 0 0 0 0 0 0 0 0 0 0 0 0 0 0 0 0 0 0 0 0 0 0 0 0 0 0
0 0 0 -0 0 0 -0 -0 0 0 0 0 0 0 0 0 0 0 0 0 0 0 0 0 0 0 0 0 0 0 0 0 0 0 0 0 0 0 0 0 0 0 0
0 0 0 0 0 0 -0 -0 -0 -0 0 0 0 0 0 0 0 0 0 0 0 0 0 0 0 0 0 0 0 0 0 0 0 0 0 0 0 0 0 0 0 0 0
0 0 0 0 0 0 0 0 0 0 0 0 0 0 0 0 0 0 0 0 0 0 0 0 0 0 0 0 0 0 0 0 0 0 0 0 0 0 0 0 0 0 0
0 0 0 0 0 0 0 -0 -0 0 0 -0 0 0 0 0 0 0 0 0 0 0 0 0 0 0 0 0 0 0 0 0 0 0 0 0 0 0 0 0 0 0 0
0 0 0 0 0 0 0 0 0 0 -0 0 0 0 0 0 0 0 0 0 0 0 0 0 0 0 0 0 0 0 0 0 0 0 0 0 0 0 0 0 0 0 0
0 0 0 0 0 0 0 -0 -0 0 0 0 0 0 0 0 0 0 0 0 0 0 0 0 0 0 0 0 0 0 0 0 0 0 0 0 0 0 0 0 0 0 0
-0 0 0 0 0 0 0 0 0 -0 -0 0 0 0 0 0 0 0 0 0 0 0 0 0 0 0 0 0 0 0 0 0 0 0 0 0 0 0 0 0 0 0 0
0 0 0 0 0 0 0 0 -0 -0 -0 -0 -0 -0 -0 0 0 0 0 0 0 0 0 0 0 0 0 0 0 0 0 0 0 0 0 0 0 0 0 0 0 0 0
-0 -0 0 -0 -0 0 0 0 0 -0 0 0 0 -0 0 0 0 0 0 0 0 0 0 0 0 0 0 0 0 0 0 0 0 0 0 0 0 0 0 0 0 0 0
0 -0 -0 -0 0 -0 -0 -0 -0 -0 -0 -0 -0 0 0 0 0 0 -0 0 0 0 0 0 0 0 0 0 0 0 0 0 0 0 0 0 0 0 0 0 0 0 0
Wind_Speed_500mb
48 28 34 38 43 46 47 47 48 52 52 53 55 58 64 67 70 72 85 90 92 83 77 78 78 79 70 91 109 106 110 103 111 108 99 86 91 79 85 83 73 65 61
32 36 42 46 49 54 54 56 56 58 55 57 60 60 64 64 61 63 68 64 91 91 88 77 77 80 90 71 115 114 113 117 115 104 102 59 58 69 55 76 74 72 73
37 45 53 56 59 59 58 58 59 60 61 59 61 65 65 68 67 72 73 85 72 83 90 80 85 80 88 96 104 97 109 118 106 121 69 32 24 54 63 61 73 71 74
45 55 63 62 61 61 58 60 60 62 65 63 62 65 68 68 72 71 70 77 61 75 87 82 86 94 89 98 97 110 110 105 125 117 96 79 72 45 42 56 74 69 70
60 61 61 63 60 59 59 59 61 61 62 66 64 67 69 75 75 69 68 65 71 71 79 88 94 93 94 92 99 107 106 103 110 119 107 97 79 75 72 62 70 72 71
61 62 60 60 61 59 59 58 61 65 61 64 67 73 76 79 73 74 75 70 71 75 83 90 96 91 92 96 96 89 96 90 110 96 107 101 78 83 82 73 89 67 64
59 62 60 61 62 63 63 61 61 69 66 67 74 78 83 84 84 79 75 75 77 80 86 95 96 101 94 88 94 87 92 93 104 101 105 107 105 101 78 76 87 78 57
58 60 62 61 62 60 60 61 64 73 71 71 74 81 85 87 86 91 82 73 85 80 88 95 105 98 93 94 83 72 78 93 102 104 110 108 99 90 79 81 95 72 67
57 64 65 65 65 65 63 63 67 72 74 73 74 78 82 79 86 85 87 89 84 78 81 101 114 96 92 84 85 80 89 93 102 100 108 96 77 89 78 60 82 88 54
53 57 61 63 63 66 65 61 62 68 71 73 76 77 81 79 78 87 86 85 86 84 95 108 114 96 94 87 81 85 82 90 94 96 100 98 98 69 72 72 71 66 61
49 56 60 64 64 66 64 60 56 60 65 68 74 76 79 84 74 84 91 97 87 87 85 101 105 100 96 90 87 84 93 98 91 89 87 100 106 90 80 81 74 69 74
50 56 62 66 69 71 68 64 55 56 54 59 66 75 78 87 83 78 93 108 90 81 91 128 101 102 94 95 91 89 96 103 97 93 92 103 102 101 70 59 62 54 40
55 62 71 72 75 78 75 68 59 51 44 43 54 70 81 87 97 85 101 92 86 75 109 95 97 99 99 94 89 89 92 98 89 85 99 106 111 104 83 74 75 53 38
52 59 68 76 78 80 78 73 66 52 35 19 34 61 72 86 91 89 101 104 81 81 79 101 93 92 87 84 79 66 56 59 55 42 84 98 119 112 104 84 65 53 53
55 66 72 80 83 84 82 78 69 55 35 28 10 38 63 75 86 87 103 94 76 81 94 86 73 70 76 86 72 55 51 55 58 58 53 63 107 117 117 107 85 66 56
53 65 70 75 83 82 85 84 75 66 58 49 48 37 44 59 73 92 80 67 86 96 77 83 74 75 67 51 56 60 54 45 44 44 41 44 69 98 113 111 105 88 67
55 65 68 71 73 79 84 88 82 74 75 78 70 60 75 88 83 55 77 88 85 85 86 79 68 73 70 64 58 56 52 56 50 51 53 48 53 64 67 92 96 91 97
56 60 62 66 66 72 79 85 86 88 88 85 89 93 102 96 79 81 84 77 83 82 86 85 74 64 66 61 56 55 50 42 45 48 52 52 58 63 66 65 77 89 90
46 49 53 57 62 66 73 81 87 100 113 110 111 103 99 102 99 96 86 90 90 88 81 70 61 58 46 42 49 47 42 36 29 34 39 42 45 51 55 52 54 49 65
42 47 48 55 62 66 73 82 90 97 106 101 90 94 95 87 89 79 88 91 89 78 79 73 62 52 49 35 32 32 36 41 36 26 15 31 35 39 51 58 56 65 65
39 42 47 54 58 64 72 77 78 87 83 87 84 86 91 88 86 81 74 69 67 67 69 65 58 52 49 40 31 29 25 25 27 29 33 33 29 34 35 43 54 59 59
33 39 44 50 54 59 66 72 76 72 72 76 73 79 79 82 77 77 72 67 59 57 57 50 44 35 29 27 29 26 25 24 23 24 21 22 23 34 37 36 41 47 50
24 33 39 45 50 54 57 62 65 66 64 65 67 69 74 76 75 75 70 68 61 58 54 50 46 38 31 24 18 16 15 15 17 19 20 16 16 17 20 25 31 35 38
16 25 34 41 47 51 55 58 58 60 61 62 66 65 67 71 71 71 69 65 59 53 50 46 43 39 33 26 21 19 14 11 13 12 13 14 14 13 14 18 22 24 28
11 17 24 33 40 44 46 49 51 52 53 53 54 58 60 60 62 64 62 59 56 49 46 44 38 34 30 28 22 17 17 15 14 10 7 13 17 19 21 23 22 23 26
7 12 18 23 30 35 40 43 46 48 48 49 52 52 51 50 51 50 49 49 48 45 43 40 35 31 26 20 15 13 14 14 12 9 5 7 12 17 23 26 27 28 28
Wind_Direction_500mb
283 290 285 290 291 290 290 287 285 279 275 270 266 264 265 262 262 265 264 249 246 249 241 239 241 239 216 198 215 216 215 201 203 211 195 201 203 195 200 205 205 202 195
289 291 296 296 294 291 289 285 281 278 274 269 265 261 261 259 259 260 254 253 247 244 245 239 236 233 214 228 213 221 206 207 202 204 196 177 179 188 182 195 200 200 198
301 302 301 299 296 291 289 284 279 274 271 265 265 260 259 259 258 254 253 248 239 245 244 240 235 226 220 220 223 227 211 213 205 211 203 169 177 179 186 194 197 200 200
306 305 304 300 296 293 289 285 280 275 270 267 261 257 255 255 254 253 255 262 243 242 243 241 235 229 230 223 229 225 219 219 213 207 205 208 203 178 177 200 192 198 200
310 307 303 300 296 293 291 286 282 276 270 268 258 255 254 253 250 249 251 255 233 238 233 237 230 226 232 231 230 232 223 232 221 208 198 218 206 199 182 178 189 195 196
312 308 306 302 299 296 293 288 283 278 272 265 258 253 253 248 248 244 242 243 239 237 230 232 229 227 230 229 228 229 226 243 228 228 213 214 207 197 191 186 187 187 198
311 311 309 305 302 300 296 292 286 278 271 264 257 253 252 248 241 239 240 241 233 233 225 225 226 227 224 223 226 229 232 226 226 230 219 218 224 208 192 186 176 186 196
316 314 312 308 303 300 296 292 287 280 274 267 259 254 246 247 240 233 235 236 232 234 225 224 219 216 223 221 221 223 227 232 227 225 220 214 198 186 187 183 182 181 199
320 316 314 312 309 306 303 295 289 283 276 270 261 255 244 241 235 231 231 236 230 231 222 216 214 217 216 216 220 223 224 224 224 223 217 212 189 186 178 175 177 190 189
319 317 315 313 310 308 307 301 292 284 277 267 258 251 244 234 234 229 227 231 230 222 218 212 213 213 212 217 214 224 223 219 216 215 212 204 187 181 189 193 182 180 205
325 322 322 323 324 322 319 311 300 290 279 269 260 250 243 227 230 228 227 228 227 219 219 215 210 212 212 206 210 217 217 211 209 208 210 206 193 188 179 178 185 212 222
332 331 330 331 332 335 332 327 318 303 284 268 254 244 238 230 218 225 225 221 215 216 206 208 214 206 206 208 208 212 212 205 204 207 204 200 189 181 182 187 203 195 196
335 337 341 340 341 343 343 341 334 324 302 276 253 241 234 227 216 216 221 220 206 210 204 214 220 205 200 208 207 208 208 208 209 214 206 197 184 185 185 183 180 185 184
331 336 341 344 347 349 350 350 346 350 328 300 247 238 228 218 216 221 213 200 202 205 201 207 200 198 199 202 202 195 194 204 202 202 217 204 196 192 194 193 192 199 210
338 343 345 347 353 357 1 1 2 9 14 30 110 207 213 213 211 203 188 189 201 213 199 201 177 152 163 173 160 165 175 187 189 193 203 217 216 203 204 208 209 210 207
338 344 350 354 357 0 5 4 14 24 31 50 77 115 157 167 179 182 174 188 201 172 168 169 159 163 170 181 175 164 163 164 177 179 196 212 219 218 215 210 216 219 217
343 351 355 358 1 4 12 14 24 33 42 59 75 86 119 125 120 136 156 167 163 160 163 160 161 163 174 168 185 174 157 161 169 179 185 193 190 205 216 220 223 225 230
352 358 1 3 7 11 19 25 32 39 47 50 62 73 94 106 113 116 124 133 139 140 142 156 167 173 177 182 183 174 158 175 185 193 196 203 206 203 208 220 220 225 229
357 2 8 10 16 20 22 29 32 39 48 50 57 68 78 92 102 104 106 103 113 117 126 128 129 138 144 157 169 175 170 185 192 199 212 211 216 213 213 209 211 209 218
7 9 17 22 25 30 30 33 32 41 45 50 56 67 72 81 87 90 90 96 101 103 107 106 111 109 118 129 141 148 158 158 168 174 191 226 206 209 207 204 215 204 200
13 18 26 28 28 30 38 40 37 40 45 51 55 62 71 72 76 80 83 87 92 94 94 96 96 95 97 105 117 118 131 141 160 175 189 200 214 204 204 209 211 214 212
18 26 30 33 33 35 37 41 43 43 45 52 56 61 66 73 78 79 78 77 77 77 82 86 90 95 101 108 109 109 120 130 138 144 156 172 190 205 215 215 212 212 219
27 24 31 35 37 38 41 41 42 47 49 54 59 61 65 72 76 79 79 78 81 83 84 89 93 91 91 93 99 131 138 140 139 141 146 155 161 169 189 196 209 220 220
30 34 29 34 37 40 40 41 41 41 44 48 53 57 60 65 68 74 79 81 81 82 85 90 88 86 86 88 85 95 111 143 167 169 175 188 192 189 182 194 208 215 214
6 30 39 35 33 36 41 43 43 42 43 46 52 55 56 59 66 68 68 72 75 75 77 75 74 74 73 69 76 84 88 86 93 110 169 205 209 208 210 211 207 205 210
333 15 28 34 36 33 34 38 39 39 40 42 44 47 53 57 58 62 65 67 70 70 74 75 75 75 75 71 71 77 80 84 87 97 125 178 197 206 212 220 218 217 218
Wind_Speed_850mb
48 28 34 38 43 46 47 47 48 52 52 53 55 58 64 67 70 72 85 90 92 83 77 78 78 79 70 91 109 106 110 103 111 108 99 86 91 79 85 83 73 65 61
32 36 42 46 49 54 54 56 56 58 55 57 60 60 64 64 61 63 68 64 91 91 88 77 77 80 90 71 115 114 113 117 115 104 102 59 58 69 55 76 74 72 73
37 45 53 56 59 59 58 58 59 60 61 59 61 65 65 68 67 72 73 85 72 83 90 80 85 80 88 96 104 97 109 118 106 121 69 32 24 54 63 61 73 71 74
45 55 63 62 61 61 58 60 60 62 65 63 62 65 68 68 72 71 70 77 61 75 87 82 86 94 89 98 97 110 110 105 125 117 96 79 72 45 42 56 74 69 70
60 61 61 63 60 59 59 59 61 61 62 66 64 67 69 75 75 69 68 65 71 71 79 88 94 93 94 92 99 107 106 103 110 119 107 97 79 75 72 62 70 72 71
61 62 60 60 61 59 59 58 61 65 61 64 67 73 76 79 73 74 75 70 71 75 83 90 96 91 92 96 96 89 96 90 110 96 107 101 78 83 82 73 89 67 64
59 62 60 61 62 63 63 61 61 69 66 67 74 78 83 84 84 79 75 75 77 80 86 95 96 101 94 88 94 87 92 93 104 101 105 107 105 101 78 76 87 78 57
58 60 62 61 62 60 60 61 64 73 71 71 74 81 85 87 86 91 82 73 85 80 88 95 105 98 93 94 83 72 78 93 102 104 110 108 99 90 79 81 95 72 67
57 64 65 65 65 65 63 63 67 72 74 73 74 78 82 79 86 85 87 89 84 78 81 101 114 96 92 84 85 80 89 93 102 100 108 96 77 89 78 60 82 88 54
53 57 61 63 63 66 65 61 62 68 71 73 76 77 81 79 78 87 86 85 86 84 95 108 114 96 94 87 81 85 82 90 94 96 100 98 98 69 72 72 71 66 61
49 56 60 64 64 66 64 60 56 60 65 68 74 76 79 84 74 84 91 97 87 87 85 101 105 100 96 90 87 84 93 98 91 89 87 100 106 90 80 81 74 69 74
50 56 62 66 69 71 68 64 55 56 54 59 66 75 78 87 83 78 93 108 90 81 91 128 101 102 94 95 91 89 96 103 97 93 92 103 102 101 70 59 62 54 40
55 62 71 72 75 78 75 68 59 51 44 43 54 70 81 87 97 85 101 92 86 75 109 95 97 99 99 94 89 89 92 98 89 85 99 106 111 104 83 74 75 53 38
52 59 68 76 78 80 78 73 66 52 35 19 34 61 72 86 91 89 101 104 81 81 79 101 93 92 87 84 79 66 56 59 55 42 84 98 119 112 104 84 65 53 53
55 66 72 80 83 84 82 78 69 55 35 28 10 38 63 75 86 87 103 94 76 81 94 86 73 70 76 86 72 55 51 55 58 58 53 63 107 117 117 107 85 66 56
53 65 70 75 83 82 85 84 75 66 58 49 48 37 44 59 73 92 80 67 86 96 77 83 74 75 67 51 56 60 54 45 44 44 41 44 69 98 113 111 105 88 67
55 65 68 71 73 79 84 88 82 74 75 78 70 60 75 88 83 55 77 88 85 85 86 79 68 73 70 64 58 56 52 56 50 51 53 48 53 64 67 92 96 91 97
56 60 62 66 66 72 79 85 86 88 88 85 89 93 102 96 79 81 84 77 83 82 86 85 74 64 66 61 56 55 50 42 45 48 52 52 58 63 66 65 77 89 90
46 49 53 57 62 66 73 81 87 100 113 110 111 103 99 102 99 96 86 90 90 88 81 70 61 58 46 42 49 47 42 36 29 34 39 42 45 51 55 52 54 49 65
42 47 48 55 62 66 73 82 90 97 106 101 90 94 95 87 89 79 88 91 89 78 79 73 62 52 49 35 32 32 36 41 36 26 15 31 35 39 51 58 56 65 65
39 42 47 54 58 64 72 77 78 87 83 87 84 86 91 88 86 81 74 69 67 67 69 65 58 52 49 40 31 29 25 25 27 29 33 33 29 34 35 43 54 59 59
33 39 44 50 54 59 66 72 76 72 72 76 73 79 79 82 77 77 72 67 59 57 57 50 44 35 29 27 29 26 25 24 23 24 21 22 23 34 37 36 41 47 50
24 33 39 45 50 54 57 62 65 66 64 65 67 69 74 76 75 75 70 68 61 58 54 50 46 38 31 24 18 16 15 15 17 19 20 16 16 17 20 25 31 35 38
16 25 34 41 47 51 55 58 58 60 61 62 66 65 67 71 71 71 69 65 59 53 50 46 43 39 33 26 21 19 14 11 13 12 13 14 14 13 14 18 22 24 28
11 17 24 33 40 44 46 49 51 52 53 53 54 58 60 60 62 64 62 59 56 49 46 44 38 34 30 28 22 17 17 15 14 10 7 13 17 19 21 23 22 23 26
7 12 18 23 30 35 40 43 46 48 48 49 52 52 51 50 51 50 49 49 48 45 43 40 35 31 26 20 15 13 14 14 12 9 5 7 12 17 23 26 27 28 28
Wind_Direction_850mb
283 290 285 290 291 290 290 287 285 279 275 270 266 264 265 262 262 265 264 249 246 249 241 239 241 239 216 198 215 216 215 201 203 211 195 201 203 195 200 205 205 202 195
289 291 296 296 294 291 289 285 281 278 274 269 265 261 261 259 259 260 254 253 247 244 245 239 236 233 214 228 213 221 206 207 202 204 196 177 179 188 182 195 200 200 198
301 302 301 299 296 291 289 284 279 274 271 265 265 260 259 259 258 254 253 248 239 245 244 240 235 226 220 220 223 227 211 213 205 211 203 169 177 179 186 194 197 200 200
306 305 304 300 296 293 289 285 280 275 270 267 261 257 255 255 254 253 255 262 243 242 243 241 235 229 230 223 229 225 219 219 213 207 205 208 203 178 177 200 192 198 200
310 307 303 300 296 293 291 286 282 276 270 268 258 255 254 253 250 249 251 255 233 238 233 237 230 226 232 231 230 232 223 232 221 208 198 218 206 199 182 178 189 195 196
312 308 306 302 299 296 293 288 283 278 272 265 258 253 253 248 248 244 242 243 239 237 230 232 229 227 230 229 228 229 226 243 228 228 213 214 207 197 191 186 187 187 198
311 311 309 305 302 300 296 292 286 278 271 264 257 253 252 248 241 239 240 241 233 233 225 225 226 227 224 223 226 229 232 226 226 230 219 218 224 208 192 186 176 186 196
316 314 312 308 303 300 296 292 287 280 274 267 259 254 246 247 240 233 235 236 232 234 225 224 219 216 223 221 221 223 227 232 227 225 220 214 198 186 187 183 182 181 199
320 316 314 312 309 306 303 295 289 283 276 270 261 255 244 241 235 231 231 236 230 231 222 216 214 217 216 216 220 223 224 224 224 223 217 212 189 186 178 175 177 190 189
319 317 315 313 310 308 307 301 292 284 277 267 258 251 244 234 234 229 227 231 230 222 218 212 213 213 212 217 214 224 223 219 216 215 212 204 187 181 189 193 182 180 205
325 322 322 323 324 322 319 311 300 290 279 269 260 250 243 227 230 228 227 228 227 219 219 215 210 212 212 206 210 217 217 211 209 208 210 206 193 188 179 178 185 212 222
332 331 330 331 332 335 332 327 318 303 284 268 254 244 238 230 218 225 225 221 215 216 206 208 214 206 206 208 208 212 212 205 204 207 204 200 189 181 182 187 203 195 196
335 337 341 340 341 343 343 341 334 324 302 276 253 241 234 227 216 216 221 220 206 210 204 214 220 205 200 208 207 208 208 208 209 214 206 197 184 185 185 183 180 185 184
331 336 341 344 347 349 350 350 346 350 328 300 247 238 228 218 216 221 213 200 202 205 201 207 200 198 199 202 202 195 194 204 202 202 217 204 196 192 194 193 192 199 210
338 343 345 347 353 357 1 1 2 9 14 30 110 207 213 213 211 203 188 189 201 213 199 201 177 152 163 173 160 165 175 187 189 193 203 217 216 203 204 208 209 210 207
338 344 350 354 357 0 5 4 14 24 31 50 77 115 157 167 179 182 174 188 201 172 168 169 159 163 170 181 175 164 163 164 177 179 196 212 219 218 215 210 216 219 217
343 351 355 358 1 4 12 14 24 33 42 59 75 86 119 125 120 136 156 167 163 160 163 160 161 163 174 168 185 174 157 161 169 179 185 193 190 205 216 220 223 225 230
352 358 1 3 7 11 19 25 32 39 47 50 62 73 94 106 113 116 124 133 139 140 142 156 167 173 177 182 183 174 158 175 185 193 196 203 206 203 208 220 220 225 229
357 2 8 10 16 20 22 29 32 39 48 50 57 68 78 92 102 104 106 103 113 117 126 128 129 138 144 157 169 175 170 185 192 199 212 211 216 213 213 209 211 209 218
7 9 17 22 25 30 30 33 32 41 45 50 56 67 72 81 87 90 90 96 101 103 107 106 111 109 118 129 141 148 158 158 168 174 191 226 206 209 207 204 215 204 200
13 18 26 28 28 30 38 40 37 40 45 51 55 62 71 72 76 80 83 87 92 94 94 96 96 95 97 105 117 118 131 141 160 175 189 200 214 204 204 209 211 214 212
18 26 30 33 33 35 37 41 43 43 45 52 56 61 66 73 78 79 78 77 77 77 82 86 90 95 101 108 109 109 120 130 138 144 156 172 190 205 215 215 212 212 219
27 24 31 35 37 38 41 41 42 47 49 54 59 61 65 72 76 79 79 78 81 83 84 89 93 91 91 93 99 131 138 140 139 141 146 155 161 169 189 196 209 220 220
30 34 29 34 37 40 40 41 41 41 44 48 53 57 60 65 68 74 79 81 81 82 85 90 88 86 86 88 85 95 111 143 167 169 175 188 192 189 182 194 208 215 214
6 30 39 35 33 36 41 43 43 42 43 46 52 55 56 59 66 68 68 72 75 75 77 75 74 74 73 69 76 84 88 86 93 110 169 205 209 208 210 211 207 205 210
333 15 28 34 36 33 34 38 39 39 40 42 44 47 53 57 58 62 65 67 70 70 74 75 75 75 75 71 71 77 80 84 87 97 125 178 197 206 212 220 218 217 218